Regional Weather Roundup
Issued by NWS

Home | Current Version | Previous Version | Graphics & Text | Print | Product List | Glossary On
Versions: 1 2 3 4 5 6 7 8 9 10 11 12 13 14 15 16 17 18 19 20 21 22 23 24 25 26 27 28 29 30 31 32 33 34 35 36 37 38 39 40 41 42 43 44 45 46 47 48 49 50
000
ASUS43 KOAX 291410
RWRNE

WEATHER ROUNDUP FOR NEBRASKA
NATIONAL WEATHER SERVICE OMAHA NE
900 AM CDT SUN MAR 29 2015

NOTES: SATELLITE DATA IS BEING USED TO AUGMENT CLOUD COVER ABOVE
       12000 FEET.
       "FAIR" INDICATES FEW OR NO CLOUDS BELOW 12,000 FEET WITH NO
       SIGNIFICANT WEATHER AND/OR OBSTRUCTIONS TO VISIBILITY.

  * THESE STATIONS DO NOT REPORT WEATHER SUCH AS RAIN...SNOW OR FOG.

NEZ001>004-019>022-054>056-291500-
NEBRASKA PANHANDLE

CITY           SKY/WX    TMP DP  RH WIND       PRES   REMARKS
SCOTTSBLUFF    SUNNY     46  30  53 NW22G30   30.23R
ALLIANCE       SUNNY     46  28  49 NW30G47   30.17R
CHADRON        SUNNY     47  30  51 NW23G32   30.21R
KIMBALL        SUNNY     42  27  56 NW17      30.24R
SIDNEY         SUNNY     45  28  51 NW28G39   30.22R
$$

NEZ057>060-069>072-079>082-291500-
SOUTHWEST NEBRASKA

CITY           SKY/WX    TMP DP  RH WIND       PRES   REMARKS
NORTH PLATTE   SUNNY     51  27  39 NW21G30   30.10R
IMPERIAL         N/A     50  24  36 NW25G33   30.15R
LEXINGTON      SUNNY     53  29  39 N32G40    30.05R
MCCOOK         MOSUNNY   56  23  27 NW25G33   30.09R
OGALLALA       SUNNY     49  30  47 NW33G39   30.14R
$$

NEZ005>010-023>029-035>040-094-291500-
NORTH CENTRAL NEBRASKA

CITY           SKY/WX    TMP DP  RH WIND       PRES   REMARKS
VALENTINE      CLOUDY    47  35  63 NW32G46   30.06R
AINSWORTH      CLOUDY    49  33  55 NW36G52   30.05R
BROKEN BOW     SUNNY     52  34  50 NW29G43   30.03R
O`NEILL        CLOUDY    50  38  63 NW33G47   29.97R
ORD            SUNNY     53  33  46 NW30G43   29.98R
THEDFORD       SUNNY     49  32  51 NW36G45   30.08R
$$

NEZ041-046>049-061>064-073>077-083>087-291500-
SOUTH CENTRAL NEBRASKA

CITY           SKY/WX    TMP DP  RH WIND       PRES   REMARKS
GRAND ISLAND   MOSUNNY   52  35  52 NW22G30   29.99R
AURORA         MOSUNNY   50  37  60 NW13      29.97R
HASTINGS       MOSUNNY   53  37  54 NW13      29.97R
HEBRON         CLOUDY    47  40  75 W5        29.97R
HOLDREGE       MOSUNNY   52  26  36 NW17G28   30.04R
KEARNEY *      MOSUNNY   50  30  46 NW23G32   30.02R
YORK           PTSUNNY   48  39  71 W10       29.95R
$$

NEZ011>018-030>034-042>045-291500-
NORTHEAST NEBRASKA

CITY           SKY/WX    TMP DP  RH WIND       PRES   REMARKS
NORFOLK        PTSUNNY   54  35  48 NW26G35   29.88R
ALBION         MOSUNNY   53  32  45 NW23G32   29.94R
BLAIR          CLOUDY    45  37  74 SW8       29.89R
COLUMBUS *     PTSUNNY   46  34  61 W13       29.94R
FREMONT        CLOUDY    45  38  77 W6        29.91R
TEKAMAH        CLOUDY    47  37  68 W12G20    29.88R
WAYNE          MOSUNNY   51  36  56 W16G22    29.86F
$$

NEZ050>053-065>068-078-088>093-291500-
SOUTHEAST NEBRASKA

CITY           SKY/WX    TMP DP  RH WIND       PRES   REMARKS
LINCOLN        CLOUDY    46  39  76 VRB5      29.94R
OMAHA EPPLEY   CLOUDY    44  36  73 S7        29.90R
BEATRICE       PTSUNNY   46  40  78 SW7       29.95R
FALLS CITY     CLOUDY    45  38  76 SW6       29.96R
NEBRASKA CITY  CLOUDY    46  37  71 SW15      29.92R
PLATTSMOUTH    CLOUDY    43  36  75 S12       29.91R
$$

NEZ044-045-051>053-067-291500-
OMAHA AREA

CITY           SKY/WX    TMP DP  RH WIND       PRES   REMARKS
OMAHA EPPLEY   CLOUDY    44  36  73 S7        29.90R
BLAIR          CLOUDY    45  37  74 SW8       29.89R
FREMONT        CLOUDY    45  38  77 W6        29.91R
MILLARD        CLOUDY    45  38  75 CALM      29.90R
OFFUTT AFB     CLOUDY    44  37  76 S5        29.90R
PLATTSMOUTH    CLOUDY    43  36  75 S12       29.91R
WAHOO          FAIR      44  37  76 CALM      29.91R
$$


USA.gov is the U.S. government's official web portal to all federal, state and local government web resources and services.